[Iaude] MPEC U270: 2022 MJ15 [a=1.90,e=0.47,i=4.0,H=31.1]
    mpec at marsden.cfa.harvard.edu 
    mpec at marsden.cfa.harvard.edu
       
    Thu Oct 26 13:59:17 EDT 2023
    
    
  
M.P.E.C. 2023-U270                             Issued 2023 October 26, 17:57 UT
     The Minor Planet Electronic Circulars contain information on unusual
         minor planets, routine data on comets and natural satellites,
         and occasional editorial announcements.  They are published
    on behalf of Division F of the International Astronomical Union by the
          Minor Planet Center, Smithsonian Astrophysical Observatory,
                          Cambridge, MA 02138, U.S.A.
			  
             Prepared using the Tamkin Foundation Computer Network
                              MPC at CFA.HARVARD.EDU
            URL https://www.minorplanetcenter.net/    ISSN 1523-6714
                                   2022 MJ15                                    
Observations:
     K22M15J* C2022 06 20.67995119 06 15.845-17 21 12.60         17.5 GVEU270P07
     K22M15J  C2022 06 20.74159419 40 13.030-20 34 19.67         17.7 GVEU270P07
     K22M15J  C2022 06 20.77873519 57 24.634-21 58 13.91         18.2 GVEU270P07
     K22M15J  C2022 06 20.80931920 09 56.993-22 52 53.72         18.0 GVEU270P07
     K22M15J  C2022 06 20.82672720 16 30.067-23 19 08.00         18.3 GVEU270P07
     K22M15J  C2022 06 20.83107920 18 04.651-23 25 11.68         18.3 GVEU270P07
     K22M15J  C2022 06 20.88047720 34 25.186-24 22 12.25         18.7 GVEU270P07
Observer details:
P07 Space Surveillance Telescope, HEH Station.  Observers M. Blythe, R.
    Brungard, P. Festler, T. McVey, J. Paige, G. Spitz, L. Banks.  Measurers
    M. Cornell, M. Kotson, A. Lue, R. Rios, J. Ruprecht, J. Vaillancourt, J.
    Varey, H. Viggh, D. Woods, R. Monardez.  3.5-m f/1. Reflector + CCD.
Orbital elements:
2022 MJ15                                                Earth MOID = 0.0007 AU
Epoch 2023 Sept. 13.0 TT = JDT 2460200.5                Veres                   
M 172.38099              (2000.0)            P               Q                  
n   0.37516702     Peri.  167.76999     -0.22683032     +0.97141318             
a   1.9039386      Node    89.08888     -0.89936544     -0.18132672             
e   0.4702993      Incl.    4.01632     -0.37375101     -0.15322226             
P   2.63           H   31.16          G   0.15           U   9                  
Residuals in seconds of arc
220620 P07  0.1+  0.1+    220620 P07  0.3+  0.0     220620 P07  0.1-  0.1+
220620 P07  0.2-  0.2-    220620 P07  0.0   0.1-
220620 P07  0.1-  0.0     220620 P07  0.0   0.1+
Ephemeris:
2022 MJ15                a,e,i = 1.90, 0.47, 4                   q = 1.0085
Date    TT    R. A. (2000) Decl.     Delta      r    Elong.  Phase     V
2023 09 26    06 28 59.3 +22 18 25   2.6906  2.7989    85.6    20.9
...
2023 10 11    06 37 46.4 +22 17 00   2.4735  2.7988    98.4    20.7
...
2023 10 19    06 40 24.8 +22 18 02   2.3583  2.7972   105.7    20.1
...
2023 10 25    06 41 18.6 +22 20 05   2.2739  2.7952   111.4    19.3
2023 10 26    06 41 21.9 +22 20 33   2.2600  2.7948   112.4    19.2
2023 10 27    06 41 23.4 +22 21 03   2.2463  2.7944   113.4    19.1
...
2023 11 02    06 40 56.0 +22 24 51   2.1656  2.7915   119.5    18.0
...
2023 11 10    06 38 36.5 +22 32 05   2.0645  2.7867   128.1    16.2
...
2023 11 25    06 28 42.2 +22 51 25   1.9041  2.7747   145.5    11.6
M. P. C. Staff               (C) Copyright 2023 MPC           M.P.E.C. 2023-U270
    
    
More information about the Iaude
mailing list